| time (UTC) | temp F | wind direction | speed MPH | gust MPH | rain 1hr in | rain 24hr in | rain mn in | humidity % | barometer mb |
| 20260906192003 | 74 | 115 | 3.0 | 19.0 | 0.00 | 0.00 | 0.00 | 91 | 1016.7 |
| 20260906191502 | 76 | 164 | 6.0 | 13.0 | 0.00 | 0.00 | 0.00 | 87 | 1016.6 |
| 20260906191003 | 79 | 116 | 4.0 | 11.0 | 0.00 | 0.00 | 0.00 | 89 | 1016.5 |
| 20260906190503 | 79 | 234 | 1.0 | 3.0 | 0.00 | 0.00 | 0.00 | 90 | 1015.9 |
| 20260906190003 | 79 | 234 | 1.0 | 2.0 | 0.00 | 0.00 | 0.00 | 91 | 1015.5 |
| 20260906185503 | 79 | 234 | 0.0 | 2.0 | 0.00 | 0.00 | 0.00 | 91 | 1015.3 |
| 20260906185003 | 79 | 235 | 0.0 | 4.0 | 0.00 | 0.00 | 0.00 | 91 | 1015.2 |
| 20260906184503 | 79 | 234 | 0.0 | 7.0 | 0.00 | 0.00 | 0.00 | 90 | 1015.2 |
| 20260906184003 | 79 | 232 | 2.0 | 7.0 | 0.00 | 0.00 | 0.00 | 90 | 1015.1 |
| 20260906183503 | 79 | 198 | 2.0 | 4.0 | 0.00 | 0.00 | 0.00 | 91 | 1015.1 |
| 20260906183003 | 79 | 194 | 1.0 | 4.0 | 0.00 | 0.00 | 0.00 | 91 | 1014.9 |
| 20260906182503 | 79 | 225 | 1.0 | 4.0 | 0.00 | 0.00 | 0.00 | 92 | 1014.8 |
| 20260906182003 | 79 | 224 | 1.0 | 3.0 | 0.00 | 0.00 | 0.00 | 92 | 1014.9 |
| 20260906181503 | 79 | 224 | 1.0 | 5.0 | 0.00 | 0.00 | 0.00 | 92 | 1015.1 |
| 20260906181002 | 79 | 219 | 2.0 | 7.0 | 0.00 | 0.00 | 0.00 | 91 | 1015.3 |
| 20260906180503 | 80 | 221 | 1.0 | 7.0 | 0.00 | 0.00 | 0.00 | 92 | 1015.3 |
| 20260906180003 | 80 | 211 | 2.0 | 5.0 | 0.00 | 0.00 | 0.00 | 92 | 1015.5 |
| 20260906175503 | 80 | 208 | 1.0 | 6.0 | 0.00 | 0.00 | 0.00 | 92 | 1015.7 |
| 20260906175003 | 80 | 247 | 1.0 | 6.0 | 0.00 | 0.00 | 0.00 | 92 | 1015.6 |
| 20260906174503 | 80 | 248 | 1.0 | 5.0 | 0.00 | 0.00 | 0.00 | 91 | 1015.5 |
| 20260906174003 | 80 | 232 | 1.0 | 4.0 | 0.00 | 0.00 | 0.00 | 93 | 1015.4 |
| 20260906173503 | 80 | 233 | 0.0 | 3.0 | 0.00 | 0.00 | 0.00 | 93 | 1015.2 |
| 20260906173003 | 80 | 232 | 0.0 | 4.0 | 0.00 | 0.00 | 0.00 | 93 | 1015.2 |
| 20260906172503 | 80 | 232 | 1.0 | 4.0 | 0.00 | 0.00 | 0.00 | 94 | 1015.2 |
| 20260906172003 | 80 | 232 | 2.0 | 3.0 | 0.00 | 0.00 | 0.00 | 94 | 1015.2 |
| 20260906171503 | 80 | 232 | 0.0 | 6.0 | 0.00 | 0.00 | 0.00 | 94 | 1015.2 |
| 20260906171003 | 80 | 233 | 2.0 | 6.0 | 0.00 | 0.00 | 0.00 | 95 | 1015.2 |
| 20260906170503 | 80 | 211 | 2.0 | 4.0 | 0.00 | 0.00 | 0.00 | 95 | 1015.3 |
| 20260906170003 | 80 | 208 | 1.0 | 3.0 | 0.00 | 0.00 | 0.00 | 95 | 1015.3 |
| 20260906165503 | 80 | 209 | 0.0 | 2.0 | 0.00 | 0.00 | 0.00 | 97 | 1015.1 |
| 20260906165003 | 80 | 208 | 0.0 | 3.0 | 0.00 | 0.00 | 0.00 | 98 | 1015.1 |
| 20260906164502 | 80 | 208 | 1.0 | 4.0 | 0.00 | 0.00 | 0.00 | 98 | 1015.1 |
| 20260906164003 | 79 | 208 | 1.0 | 4.0 | 0.00 | 0.00 | 0.00 | 99 | 1015.1 |
| 20260906163502 | 79 | 209 | 1.0 | 5.0 | 0.00 | 0.00 | 0.00 | 99 | 1015.1 |
| 20260906163003 | 79 | 211 | 0.0 | 5.0 | 0.00 | 0.00 | 0.00 | 100 | 1015.1 |
| 20260906162503 | 79 | 221 | 1.0 | 3.0 | 0.00 | 0.00 | 0.00 | 100 | 1015.0 |
| 20260906162003 | 78 | 207 | 0.0 | 3.0 | 0.00 | 0.00 | 0.00 | 100 | 1015.0 |
| 20260906161503 | 78 | 185 | 2.0 | 5.0 | 0.00 | 0.00 | 0.00 | 100 | 1014.9 |
| 20260906161003 | 78 | 186 | 1.0 | 5.0 | 0.00 | 0.00 | 0.00 | 100 | 1014.9 |
| 20260906160503 | 78 | 173 | 1.0 | 6.0 | 0.00 | 0.00 | 0.00 | 100 | 1014.9 |
| 20260906160003 | 78 | 147 | 2.0 | 6.0 | 0.00 | 0.00 | 0.00 | 100 | 1014.9 |
| 20260906155503 | 78 | 183 | 0.0 | 6.0 | 0.00 | 0.00 | 0.00 | 100 | 1014.9 |
| 20260906155003 | 78 | 180 | 1.0 | 6.0 | 0.00 | 0.00 | 0.00 | 100 | 1014.9 |
| 20260906154503 | 78 | 191 | 1.0 | 6.0 | 0.00 | 0.00 | 0.00 | 100 | 1015.0 |
| 20260906154003 | 78 | 182 | 3.0 | 6.0 | 0.00 | 0.00 | 0.00 | 100 | 1014.9 |
| 20260906153503 | 78 | 157 | 1.0 | 6.0 | 0.00 | 0.00 | 0.00 | 100 | 1014.8 |
| 20260906153002 | 77 | 172 | 2.0 | 6.0 | 0.00 | 0.00 | 0.00 | 100 | 1014.6 |
| 20260906152503 | 77 | 177 | 3.0 | 5.0 | 0.00 | 0.00 | 0.00 | 100 | 1014.7 |
| 20260906152002 | 77 | 164 | 0.0 | 6.0 | 0.00 | 0.00 | 0.00 | 100 | 1014.7 |
| 20260906151504 | 77 | 172 | 3.0 | 7.0 | 0.00 | 0.00 | 0.00 | 100 | 1014.7 |
| 20260906151003 | 77 | 169 | 1.0 | 7.0 | 0.00 | 0.00 | 0.00 | 100 | 1014.7 |
| 20260906150503 | 77 | 156 | 1.0 | 6.0 | 0.00 | 0.00 | 0.00 | 100 | 1014.7 |
| 20260906150003 | 77 | 181 | 1.0 | 6.0 | 0.00 | 0.00 | 0.00 | 100 | 1014.8 |
| 20260906145503 | 77 | 173 | 2.0 | 5.0 | 0.00 | 0.00 | 0.00 | 100 | 1014.9 |
| 20260906145003 | 77 | 178 | 1.0 | 9.0 | 0.00 | 0.00 | 0.00 | 100 | 1014.9 |
| 20260906144503 | 77 | 184 | 2.0 | 9.0 | 0.00 | 0.00 | 0.00 | 100 | 1014.9 |
| 20260906144003 | 77 | 120 | 2.0 | 7.0 | 0.00 | 0.00 | 0.00 | 100 | 1014.8 |
| 20260906143502 | 77 | 180 | 3.0 | 7.0 | 0.00 | 0.00 | 0.00 | 100 | 1014.7 |
| 20260906143003 | 77 | 177 | 1.0 | 7.0 | 0.00 | 0.00 | 0.00 | 100 | 1014.6 |
| 20260906142503 | 77 | 170 | 2.0 | 6.0 | 0.00 | 0.00 | 0.00 | 100 | 1014.7 |
| 20260906142003 | 76 | 188 | 1.0 | 6.0 | 0.00 | 0.00 | 0.00 | 100 | 1014.6 |
| 20260906141503 | 76 | 128 | 1.0 | 6.0 | 0.00 | 0.00 | 0.00 | 100 | 1014.5 |
| 20260906141003 | 76 | 140 | 2.0 | 6.0 | 0.00 | 0.00 | 0.00 | 100 | 1014.5 |
| 20260906140503 | 76 | 87 | 3.0 | 7.0 | 0.00 | 0.00 | 0.00 | 100 | 1014.4 |
| 20260906140003 | 76 | 161 | 2.0 | 7.0 | 0.00 | 0.00 | 0.00 | 100 | 1014.4 |
| 20260906135503 | 76 | 125 | 1.0 | 7.0 | 0.00 | 0.00 | 0.00 | 100 | 1014.5 |
| 20260906135003 | 76 | 97 | 3.0 | 7.0 | 0.00 | 0.00 | 0.00 | 100 | 1014.5 |
| 20260906134503 | 76 | 98 | 1.0 | 7.0 | 0.00 | 0.00 | 0.00 | 100 | 1014.5 |
| 20260906134003 | 76 | 121 | 2.0 | 7.0 | 0.00 | 0.00 | 0.00 | 100 | 1014.5 |
| 20260906133503 | 76 | 110 | 2.0 | 5.0 | 0.00 | 0.00 | 0.00 | 100 | 1014.5 |
| 20260906133003 | 75 | 106 | 1.0 | 7.0 | 0.00 | 0.00 | 0.00 | 100 | 1014.3 |
| 20260906132503 | 75 | 102 | 4.0 | 8.0 | 0.00 | 0.00 | 0.00 | 100 | 1014.5 |
| 20260906132002 | 75 | 85 | 2.0 | 8.0 | 0.00 | 0.00 | 0.00 | 100 | 1014.4 |
| 20260906131503 | 75 | 111 | 3.0 | 7.0 | 0.00 | 0.00 | 0.00 | 100 | 1014.3 |
| 20260906131002 | 75 | 100 | 3.0 | 5.0 | 0.00 | 0.00 | 0.00 | 100 | 1014.5 |
| 20260906130503 | 75 | 94 | 2.0 | 5.0 | 0.00 | 0.00 | 0.00 | 100 | 1014.4 |
| 20260906130002 | 75 | 91 | 3.0 | 5.0 | 0.00 | 0.00 | 0.00 | 100 | 1014.4 |
| 20260906125503 | 75 | 95 | 2.0 | 7.0 | 0.00 | 0.00 | 0.00 | 100 | 1014.4 |
| 20260906125003 | 75 | 114 | 4.0 | 7.0 | 0.00 | 0.00 | 0.00 | 100 | 1014.5 |
| 20260906124503 | 75 | 96 | 3.0 | 5.0 | 0.00 | 0.00 | 0.00 | 100 | 1014.4 |
| 20260906124003 | 74 | 127 | 2.0 | 5.0 | 0.00 | 0.00 | 0.00 | 100 | 1014.3 |
| 20260906123502 | 74 | 93 | 3.0 | 6.0 | 0.00 | 0.00 | 0.00 | 100 | 1014.2 |
| 20260906123003 | 74 | 118 | 3.0 | 6.0 | 0.00 | 0.00 | 0.00 | 100 | 1014.1 |
| 20260906122502 | 74 | 84 | 1.0 | 5.0 | 0.00 | 0.00 | 0.00 | 100 | 1013.9 |
| 20260906122003 | 74 | 112 | 2.0 | 5.0 | 0.00 | 0.00 | 0.00 | 100 | 1014.0 |
| 20260906121503 | 74 | 95 | 1.0 | 6.0 | 0.00 | 0.00 | 0.00 | 100 | 1013.9 |
| 20260906121003 | 74 | 98 | 2.0 | 7.0 | 0.00 | 0.00 | 0.00 | 100 | 1013.9 |
| 20260906120503 | 74 | 95 | 3.0 | 7.0 | 0.00 | 0.00 | 0.00 | 100 | 1013.7 |
| 20260906120003 | 74 | 100 | 3.0 | 5.0 | 0.00 | 0.00 | 0.00 | 100 | 1013.7 |
| 20260906115503 | 74 | 108 | 2.0 | 6.0 | 0.00 | 0.01 | 0.00 | 100 | 1013.6 |
| 20260906115003 | 74 | 91 | 3.0 | 6.0 | 0.00 | 0.01 | 0.00 | 100 | 1013.6 |
| 20260906114503 | 74 | 96 | 3.0 | 6.0 | 0.00 | 0.02 | 0.00 | 100 | 1013.6 |
| 20260906114003 | 74 | 98 | 2.0 | 6.0 | 0.00 | 0.04 | 0.00 | 100 | 1013.6 |
| 20260906113503 | 74 | 157 | 1.0 | 5.0 | 0.00 | 0.06 | 0.00 | 100 | 1013.7 |
| 20260906113003 | 74 | 122 | 2.0 | 5.0 | 0.00 | 0.08 | 0.00 | 100 | 1013.6 |
| 20260906112503 | 74 | 115 | 2.0 | 5.0 | 0.00 | 0.10 | 0.00 | 100 | 1013.6 |
| 20260906112003 | 74 | 98 | 2.0 | 5.0 | 0.00 | 0.13 | 0.00 | 100 | 1013.5 |
| 20260906111503 | 74 | 128 | 2.0 | 5.0 | 0.00 | 0.16 | 0.00 | 100 | 1013.5 |
| 20260906111003 | 74 | 94 | 1.0 | 5.0 | 0.00 | 0.18 | 0.00 | 100 | 1013.6 |
| 20260906110503 | 74 | 150 | 2.0 | 5.0 | 0.00 | 0.20 | 0.00 | 100 | 1013.6 |
| 20260906110002 | 74 | 101 | 2.0 | 5.0 | 0.00 | 0.23 | 0.00 | 100 | 1013.6 |
| 20260906105503 | 74 | 121 | 1.0 | 6.0 | 0.00 | 0.26 | 0.00 | 100 | 1013.6 |
| 20260906105002 | 74 | 98 | 1.0 | 6.0 | 0.00 | 0.27 | 0.00 | 100 | 1013.7 |
| 20260906104503 | 74 | 108 | 1.0 | 5.0 | 0.00 | 0.28 | 0.00 | 100 | 1013.6 |
| 20260906104003 | 74 | 91 | 3.0 | 5.0 | 0.00 | 0.29 | 0.00 | 100 | 1013.6 |
| 20260906103503 | 74 | 118 | 1.0 | 6.0 | 0.00 | 0.30 | 0.00 | 100 | 1013.6 |
| 20260906103003 | 74 | 117 | 2.0 | 6.0 | 0.00 | 0.30 | 0.00 | 100 | 1013.6 |
| 20260906102503 | 74 | 112 | 2.0 | 6.0 | 0.00 | 0.32 | 0.00 | 100 | 1013.6 |
| 20260906102003 | 74 | 104 | 3.0 | 6.0 | 0.00 | 0.34 | 0.00 | 100 | 1013.4 |
| 20260906101503 | 74 | 93 | 4.0 | 6.0 | 0.00 | 0.36 | 0.00 | 100 | 1013.4 |
| 20260906101003 | 74 | 108 | 4.0 | 7.0 | 0.00 | 0.36 | 0.00 | 100 | 1013.5 |
| 20260906100503 | 74 | 86 | 3.0 | 8.0 | 0.00 | 0.36 | 0.00 | 100 | 1013.5 |
| 20260906100003 | 74 | 87 | 3.0 | 8.0 | 0.00 | 0.36 | 0.00 | 100 | 1013.6 |
| 20260906095503 | 73 | 107 | 3.0 | 6.0 | 0.00 | 0.36 | 0.00 | 100 | 1013.6 |
| 20260906095003 | 73 | 93 | 4.0 | 6.0 | 0.00 | 0.36 | 0.00 | 100 | 1013.6 |
| 20260906094503 | 73 | 103 | 2.0 | 4.0 | 0.00 | 0.36 | 0.00 | 100 | 1013.7 |
| 20260906094003 | 73 | 103 | 2.0 | 4.0 | 0.00 | 0.36 | 0.00 | 100 | 1013.7 |
| 20260906093503 | 73 | 103 | 2.0 | 4.0 | 0.00 | 0.36 | 0.00 | 100 | 1013.7 |
| 20260906093003 | 73 | 77 | 0.0 | 4.0 | 0.00 | 0.36 | 0.00 | 100 | 1013.7 |
| 20260906092503 | 73 | 94 | 3.0 | 4.0 | 0.00 | 0.36 | 0.00 | 100 | 1013.9 |
| 20260906092002 | 73 | 102 | 2.0 | 6.0 | 0.00 | 0.36 | 0.00 | 100 | 1013.9 |
| 20260906091503 | 73 | 102 | 3.0 | 6.0 | 0.00 | 0.36 | 0.00 | 100 | 1013.9 |
| 20260906091002 | 73 | 125 | 3.0 | 6.0 | 0.00 | 0.36 | 0.00 | 100 | 1013.8 |
| 20260906090503 | 73 | 129 | 2.0 | 4.0 | 0.00 | 0.36 | 0.00 | 100 | 1013.8 |
| 20260906090003 | 73 | 129 | 2.0 | 4.0 | 0.00 | 0.36 | 0.00 | 100 | 1013.9 |
| 20260906085503 | 73 | 130 | 2.0 | 4.0 | 0.00 | 0.36 | 0.00 | 100 | 1013.8 |
| 20260906085003 | 73 | 130 | 2.0 | 4.0 | 0.00 | 0.36 | 0.00 | 100 | 1013.9 |
| 20260906084503 | 73 | 130 | 2.0 | 4.0 | 0.00 | 0.36 | 0.00 | 100 | 1013.8 |
| 20260906084003 | 73 | 130 | 0.0 | 3.0 | 0.00 | 0.36 | 0.00 | 100 | 1013.9 |
| 20260906083503 | 73 | 130 | 1.0 | 3.0 | 0.00 | 0.36 | 0.00 | 100 | 1013.7 |
| 20260906083003 | 73 | 131 | 1.0 | 3.0 | 0.00 | 0.36 | 0.00 | 100 | 1013.8 |
| 20260906082503 | 72 | 133 | 0.0 | 2.0 | 0.00 | 0.36 | 0.00 | 100 | 1013.6 |
| 20260906082003 | 72 | 133 | 0.0 | 3.0 | 0.00 | 0.36 | 0.00 | 100 | 1013.5 |
| 20260906081503 | 72 | 133 | 1.0 | 3.0 | 0.00 | 0.36 | 0.00 | 100 | 1013.3 |
| 20260906081003 | 72 | 145 | 1.0 | 3.0 | 0.00 | 0.36 | 0.00 | 100 | 1013.3 |
| 20260906080502 | 72 | 153 | 1.0 | 3.0 | 0.00 | 0.36 | 0.00 | 100 | 1013.3 |
| 20260906080003 | 72 | 93 | 0.0 | 3.0 | 0.00 | 0.36 | 0.00 | 100 | 1013.3 |
| 20260906075502 | 72 | 106 | 1.0 | 3.0 | 0.00 | 0.36 | 0.00 | 100 | 1013.2 |
| 20260906075003 | 73 | 105 | 1.0 | 4.0 | 0.00 | 0.36 | 0.00 | 100 | 1013.3 |
| 20260906074503 | 73 | 105 | 1.0 | 6.0 | 0.00 | 0.36 | 0.00 | 100 | 1013.4 |
| 20260906074003 | 73 | 165 | 1.0 | 6.0 | 0.00 | 0.36 | 0.00 | 100 | 1013.4 |
| 20260906073503 | 73 | 153 | 1.0 | 4.0 | 0.00 | 0.36 | 0.00 | 100 | 1013.5 |
| 20260906073003 | 73 | 137 | 0.0 | 5.0 | 0.00 | 0.36 | 0.00 | 100 | 1013.3 |
| 20260906072503 | 73 | 151 | 2.0 | 6.0 | 0.00 | 0.36 | 0.00 | 100 | 1013.3 |
| 20260906072003 | 73 | 96 | 2.0 | 6.0 | 0.00 | 0.36 | 0.00 | 100 | 1013.4 |
| 20260906071503 | 73 | 86 | 2.0 | 7.0 | 0.00 | 0.36 | 0.00 | 100 | 1013.2 |
| 20260906071003 | 72 | 98 | 2.0 | 7.0 | 0.00 | 0.36 | 0.00 | 100 | 1013.3 |
| 20260906070503 | 72 | 109 | 3.0 | 5.0 | 0.00 | 0.36 | 0.00 | 100 | 1013.2 |
| 20260906070002 | 72 | 112 | 2.0 | 5.0 | 0.00 | 0.36 | 0.00 | 100 | 1013.4 |
| 20260906065503 | 72 | 103 | 1.0 | 5.0 | 0.00 | 0.36 | 0.00 | 100 | 1013.3 |
| 20260906065002 | 72 | 104 | 3.0 | 5.0 | 0.00 | 0.36 | 0.00 | 100 | 1013.4 |
| 20260906064503 | 72 | 105 | 3.0 | 5.0 | 0.00 | 0.36 | 0.00 | 100 | 1013.4 |
| 20260906064003 | 72 | 92 | 2.0 | 4.0 | 0.00 | 0.36 | 0.00 | 100 | 1013.6 |
| 20260906063503 | 72 | 107 | 2.0 | 4.0 | 0.00 | 0.36 | 0.00 | 100 | 1013.6 |
| 20260906063003 | 72 | 107 | 2.0 | 4.0 | 0.00 | 0.36 | 0.00 | 100 | 1013.5 |
| 20260906062503 | 72 | 107 | 2.0 | 4.0 | 0.00 | 0.36 | 0.00 | 100 | 1013.6 |
| 20260906062003 | 72 | 107 | 1.0 | 4.0 | 0.00 | 0.36 | 0.00 | 100 | 1013.5 |
| 20260906061503 | 72 | 107 | 2.0 | 5.0 | 0.00 | 0.36 | 0.00 | 100 | 1013.4 |
| 20260906061003 | 72 | 103 | 2.0 | 5.0 | 0.00 | 0.36 | 0.00 | 100 | 1013.4 |
| 20260906060503 | 72 | 104 | 2.0 | 4.0 | 0.00 | 0.36 | 0.00 | 100 | 1013.5 |
| 20260906060003 | 72 | 104 | 2.0 | 3.0 | 0.00 | 0.36 | 0.00 | 100 | 1013.6 |
| 20260906055503 | 72 | 104 | 1.0 | 3.0 | 0.00 | 0.36 | 0.00 | 100 | 1013.5 |
| 20260906055003 | 72 | 104 | 1.0 | 3.0 | 0.00 | 0.36 | 0.00 | 100 | 1013.5 |
| 20260906054502 | 72 | 104 | 0.0 | 2.0 | 0.00 | 0.36 | 0.00 | 100 | 1013.6 |
| 20260906054003 | 72 | 104 | 0.0 | 1.0 | 0.00 | 0.36 | 0.00 | 100 | 1013.7 |
| 20260906053503 | 72 | 104 | 0.0 | 1.0 | 0.00 | 0.36 | 0.00 | 99 | 1013.9 |
| 20260906053003 | 72 | 104 | 0.0 | 1.0 | 0.00 | 0.36 | 0.00 | 99 | 1013.9 |
| 20260906052503 | 72 | 104 | 0.0 | 2.0 | 0.00 | 0.36 | 0.00 | 99 | 1013.7 |
| 20260906052003 | 72 | 104 | 0.0 | 3.0 | 0.00 | 0.36 | 0.00 | 99 | 1014.0 |
| 20260906051503 | 72 | 104 | 1.0 | 3.0 | 0.00 | 0.36 | 0.00 | 99 | 1013.9 |
| 20260906051003 | 72 | 104 | 2.0 | 3.0 | 0.00 | 0.36 | 0.00 | 98 | 1014.0 |
| 20260906050503 | 72 | 104 | 1.0 | 3.0 | 0.00 | 0.36 | 0.00 | 97 | 1014.0 |
| 20260906050002 | 72 | 104 | 0.0 | 3.0 | 0.00 | 0.36 | 0.36 | 97 | 1014.1 |
| 20260906045503 | 73 | 104 | 1.0 | 3.0 | 0.00 | 0.36 | 0.36 | 97 | 1014.0 |
| 20260906045002 | 73 | 104 | 1.0 | 3.0 | 0.00 | 0.36 | 0.36 | 96 | 1013.9 |
| 20260906044503 | 73 | 104 | 1.0 | 3.0 | 0.00 | 0.36 | 0.36 | 96 | 1014.1 |
| 20260906044003 | 73 | 104 | 0.0 | 1.0 | 0.00 | 0.36 | 0.36 | 95 | 1014.1 |
| 20260906043503 | 73 | 104 | 0.0 | 2.0 | 0.00 | 0.36 | 0.36 | 95 | 1014.1 |
| 20260906043003 | 74 | 104 | 1.0 | 3.0 | 0.00 | 0.36 | 0.36 | 95 | 1013.9 |
| 20260906042503 | 74 | 104 | 1.0 | 4.0 | 0.00 | 0.36 | 0.36 | 94 | 1014.0 |
| 20260906042003 | 74 | 104 | 1.0 | 4.0 | 0.00 | 0.36 | 0.36 | 94 | 1014.0 |
| 20260906041503 | 74 | 182 | 1.0 | 4.0 | 0.00 | 0.36 | 0.36 | 94 | 1014.0 |
| 20260906041003 | 74 | 158 | 1.0 | 4.0 | 0.00 | 0.36 | 0.36 | 94 | 1013.8 |
| 20260906040503 | 74 | 142 | 1.0 | 2.0 | 0.00 | 0.36 | 0.36 | 93 | 1014.0 |
| 20260906040003 | 74 | 142 | 0.0 | 2.0 | 0.00 | 0.36 | 0.36 | 93 | 1013.9 |
| 20260906035503 | 74 | 142 | 1.0 | 3.0 | 0.00 | 0.36 | 0.36 | 93 | 1013.9 |
| 20260906035003 | 75 | 168 | 1.0 | 4.0 | 0.00 | 0.36 | 0.36 | 92 | 1013.9 |
| 20260906034503 | 75 | 168 | 1.0 | 6.0 | 0.00 | 0.36 | 0.36 | 92 | 1013.9 |
| 20260906034003 | 75 | 158 | 1.0 | 6.0 | 0.00 | 0.36 | 0.36 | 92 | 1014.0 |
| 20260906033503 | 75 | 138 | 2.0 | 7.0 | 0.00 | 0.36 | 0.36 | 91 | 1013.8 |
| 20260906033003 | 75 | 171 | 1.0 | 7.0 | 0.00 | 0.36 | 0.36 | 91 | 1013.8 |
| 20260906032503 | 75 | 194 | 2.0 | 6.0 | 0.00 | 0.36 | 0.36 | 90 | 1013.6 |
| 20260906032003 | 75 | 165 | 1.0 | 3.0 | 0.00 | 0.36 | 0.36 | 90 | 1013.6 |
| 20260906031503 | 75 | 165 | 1.0 | 6.0 | 0.00 | 0.36 | 0.36 | 89 | 1013.6 |
| 20260906031003 | 75 | 165 | 1.0 | 7.0 | 0.00 | 0.36 | 0.36 | 89 | 1013.6 |
| 20260906030503 | 75 | 192 | 1.0 | 7.0 | 0.00 | 0.36 | 0.36 | 88 | 1013.6 |
| 20260906030003 | 76 | 137 | 2.0 | 3.0 | 0.00 | 0.36 | 0.36 | 88 | 1013.4 |
| 20260906025503 | 76 | 185 | 1.0 | 3.0 | 0.00 | 0.36 | 0.36 | 87 | 1013.7 |
| 20260906025003 | 76 | 148 | 1.0 | 3.0 | 0.00 | 0.36 | 0.36 | 86 | 1013.6 |
| 20260906024503 | 76 | 110 | 0.0 | 3.0 | 0.00 | 0.36 | 0.36 | 86 | 1013.7 |
| 20260906024003 | 77 | 110 | 1.0 | 3.0 | 0.00 | 0.36 | 0.36 | 86 | 1013.7 |
| 20260906023503 | 77 | 115 | 1.0 | 4.0 | 0.00 | 0.36 | 0.36 | 85 | 1013.7 |
| 20260906023003 | 77 | 106 | 0.0 | 5.0 | 0.00 | 0.36 | 0.36 | 85 | 1013.6 |
| 20260906022503 | 77 | 114 | 1.0 | 5.0 | 0.00 | 0.36 | 0.36 | 84 | 1013.5 |
| 20260906022003 | 77 | 109 | 1.0 | 4.0 | 0.00 | 0.36 | 0.36 | 83 | 1013.4 |
| 20260906021503 | 77 | 106 | 1.0 | 5.0 | 0.00 | 0.36 | 0.36 | 83 | 1013.3 |
| 20260906021003 | 78 | 90 | 2.0 | 5.0 | 0.00 | 0.36 | 0.36 | 82 | 1013.2 |
| 20260906020503 | 78 | 143 | 1.0 | 3.0 | 0.00 | 0.36 | 0.36 | 82 | 1013.3 |
| 20260906020003 | 78 | 109 | 1.0 | 3.0 | 0.00 | 0.36 | 0.36 | 81 | 1013.4 |
| 20260906015502 | 78 | 109 | 0.0 | 2.0 | 0.00 | 0.36 | 0.36 | 81 | 1013.2 |
| 20260906015004 | 79 | 109 | 0.0 | 4.0 | 0.00 | 0.36 | 0.36 | 80 | 1012.9 |
| 20260906014502 | 79 | 109 | 1.0 | 4.0 | 0.00 | 0.36 | 0.36 | 80 | 1013.0 |
| 20260906014003 | 79 | 141 | 1.0 | 4.0 | 0.00 | 0.36 | 0.36 | 79 | 1013.1 |
| 20260906013503 | 79 | 162 | 1.0 | 3.0 | 0.00 | 0.36 | 0.36 | 78 | 1013.0 |
| 20260906013003 | 80 | 169 | 1.0 | 5.0 | 0.00 | 0.36 | 0.36 | 78 | 1013.0 |
| 20260906012503 | 80 | 108 | 1.0 | 5.0 | 0.00 | 0.36 | 0.36 | 77 | 1012.9 |
| 20260906012003 | 80 | 176 | 1.0 | 5.0 | 0.00 | 0.36 | 0.36 | 76 | 1012.9 |
| 20260906011503 | 80 | 172 | 1.0 | 5.0 | 0.00 | 0.36 | 0.36 | 76 | 1012.9 |
| 20260906011003 | 81 | 100 | 1.0 | 3.0 | 0.00 | 0.36 | 0.36 | 75 | 1012.9 |
| 20260906010503 | 81 | 139 | 1.0 | 3.0 | 0.00 | 0.36 | 0.36 | 74 | 1013.0 |
| 20260906010003 | 81 | 141 | 1.0 | 5.0 | 0.00 | 0.36 | 0.36 | 73 | 1013.0 |
| 20260906005503 | 82 | 118 | 1.0 | 5.0 | 0.00 | 0.36 | 0.36 | 73 | 1013.0 |
| 20260906005003 | 82 | 160 | 1.0 | 6.0 | 0.00 | 0.36 | 0.36 | 72 | 1012.9 |
| 20260906004503 | 83 | 103 | 2.0 | 6.0 | 0.00 | 0.36 | 0.36 | 71 | 1012.9 |
| 20260906004003 | 83 | 161 | 1.0 | 4.0 | 0.00 | 0.36 | 0.36 | 70 | 1012.9 |
| 20260906003503 | 83 | 135 | 2.0 | 6.0 | 0.00 | 0.36 | 0.36 | 69 | 1013.0 |
| 20260906003002 | 84 | 80 | 1.0 | 6.0 | 0.00 | 0.36 | 0.36 | 69 | 1012.9 |
| 20260906002503 | 84 | 135 | 1.0 | 6.0 | 0.00 | 0.36 | 0.36 | 67 | 1012.7 |
| 20260906002003 | 85 | 150 | 1.0 | 6.0 | 0.00 | 0.36 | 0.36 | 66 | 1012.6 |
| 20260906001503 | 85 | 137 | 2.0 | 5.0 | 0.00 | 0.36 | 0.36 | 65 | 1012.6 |
| 20260906001002 | 85 | 168 | 1.0 | 4.0 | 0.00 | 0.36 | 0.36 | 64 | 1012.5 |
| 20260906000503 | 86 | 166 | 1.0 | 6.0 | 0.00 | 0.36 | 0.36 | 63 | 1012.5 |
| 20260906000003 | 86 | 161 | 1.0 | 6.0 | 0.00 | 0.36 | 0.36 | 63 | 1012.3 |
| 20260905235503 | 86 | 151 | 1.0 | 4.0 | 0.00 | 0.36 | 0.36 | 63 | 1012.0 |
| 20260905235003 | 86 | 145 | 2.0 | 7.0 | 0.00 | 0.36 | 0.36 | 63 | 1012.0 |
| 20260905234503 | 86 | 184 | 2.0 | 7.0 | 0.00 | 0.36 | 0.36 | 62 | 1012.1 |
| 20260905234003 | 87 | 180 | 1.0 | 8.0 | 0.00 | 0.36 | 0.36 | 62 | 1012.0 |
| 20260905233503 | 87 | 183 | 3.0 | 8.0 | 0.00 | 0.36 | 0.36 | 61 | 1012.1 |
| 20260905233003 | 87 | 203 | 1.0 | 8.0 | 0.00 | 0.36 | 0.36 | 61 | 1012.1 |
| 20260905232503 | 87 | 173 | 2.0 | 10.0 | 0.00 | 0.36 | 0.36 | 62 | 1012.1 |
| 20260905232002 | 87 | 173 | 2.0 | 11.0 | 0.00 | 0.36 | 0.36 | 62 | 1012.1 |
| 20260905231503 | 87 | 139 | 4.0 | 11.0 | 0.00 | 0.36 | 0.36 | 63 | 1012.0 |
| 20260905231002 | 87 | 158 | 2.0 | 8.0 | 0.00 | 0.36 | 0.36 | 63 | 1012.1 |
| 20260905230503 | 87 | 156 | 3.0 | 6.0 | 0.00 | 0.36 | 0.36 | 62 | 1012.1 |
| 20260905230003 | 87 | 191 | 2.0 | 5.0 | 0.00 | 0.36 | 0.36 | 62 | 1012.1 |
| 20260905225503 | 88 | 178 | 3.0 | 8.0 | 0.00 | 0.36 | 0.36 | 61 | 1012.1 |
| 20260905225003 | 88 | 167 | 4.0 | 8.0 | 0.00 | 0.36 | 0.36 | 61 | 1012.1 |
| 20260905224503 | 88 | 139 | 2.0 | 6.0 | 0.00 | 0.36 | 0.36 | 61 | 1012.1 |
| 20260905224003 | 88 | 152 | 1.0 | 7.0 | 0.00 | 0.36 | 0.36 | 60 | 1012.1 |
| 20260905223503 | 88 | 167 | 3.0 | 8.0 | 0.00 | 0.36 | 0.36 | 59 | 1012.1 |
| 20260905223003 | 88 | 184 | 1.0 | 8.0 | 0.00 | 0.36 | 0.36 | 60 | 1012.2 |
| 20260905222503 | 88 | 205 | 2.0 | 7.0 | 0.00 | 0.36 | 0.36 | 59 | 1012.2 |
| 20260905222003 | 88 | 164 | 1.0 | 6.0 | 0.00 | 0.36 | 0.36 | 60 | 1012.2 |
| 20260905221502 | 88 | 190 | 3.0 | 8.0 | 0.00 | 0.36 | 0.36 | 60 | 1012.1 |
| 20260905221003 | 88 | 162 | 2.0 | 8.0 | 0.00 | 0.36 | 0.36 | 60 | 1012.2 |
| 20260905220503 | 88 | 116 | 2.0 | 6.0 | 0.00 | 0.36 | 0.36 | 59 | 1012.1 |
| 20260905220003 | 88 | 160 | 2.0 | 5.0 | 0.00 | 0.36 | 0.36 | 60 | 1012.1 |
| 20260905215503 | 88 | 140 | 2.0 | 6.0 | 0.00 | 0.36 | 0.36 | 61 | 1012.0 |
| 20260905215003 | 88 | 116 | 3.0 | 7.0 | 0.00 | 0.36 | 0.36 | 60 | 1012.0 |
| 20260905214503 | 88 | 178 | 3.0 | 7.0 | 0.00 | 0.36 | 0.36 | 62 | 1012.1 |
| 20260905214003 | 88 | 135 | 2.0 | 7.0 | 0.00 | 0.36 | 0.36 | 61 | 1012.0 |
| 20260905213503 | 88 | 144 | 2.0 | 7.0 | 0.00 | 0.36 | 0.36 | 60 | 1012.0 |
| 20260905213002 | 88 | 168 | 3.0 | 7.0 | 0.00 | 0.36 | 0.36 | 59 | 1011.9 |
| 20260905212503 | 88 | 148 | 2.0 | 7.0 | 0.00 | 0.36 | 0.36 | 59 | 1012.0 |
| 20260905212002 | 88 | 175 | 2.0 | 7.0 | 0.00 | 0.36 | 0.36 | 59 | 1011.9 |
| 20260905211503 | 88 | 118 | 3.0 | 7.0 | 0.00 | 0.36 | 0.36 | 59 | 1011.9 |
| 20260905211002 | 87 | 110 | 2.0 | 7.0 | 0.00 | 0.36 | 0.36 | 60 | 1011.9 |
| 20260905210503 | 87 | 101 | 3.0 | 8.0 | 0.00 | 0.36 | 0.36 | 59 | 1012.0 |
| 20260905210003 | 87 | 119 | 2.0 | 8.0 | 0.00 | 0.36 | 0.36 | 59 | 1012.0 |
| 20260905205503 | 87 | 115 | 3.0 | 7.0 | 0.00 | 0.36 | 0.36 | 58 | 1012.0 |
| 20260905205003 | 88 | 117 | 3.0 | 7.0 | 0.00 | 0.36 | 0.36 | 58 | 1011.9 |
| 20260905204503 | 88 | 159 | 4.0 | 8.0 | 0.00 | 0.36 | 0.36 | 58 | 1011.9 |
| 20260905204002 | 87 | 151 | 3.0 | 9.0 | 0.00 | 0.36 | 0.36 | 57 | 1011.9 |
| 20260905203503 | 88 | 149 | 3.0 | 9.0 | 0.00 | 0.36 | 0.36 | 57 | 1011.9 |
| 20260905203003 | 88 | 117 | 3.0 | 8.0 | 0.00 | 0.36 | 0.36 | 58 | 1011.8 |
| 20260905202503 | 88 | 110 | 3.0 | 8.0 | 0.00 | 0.36 | 0.36 | 58 | 1011.7 |
| 20260905202003 | 88 | 122 | 3.0 | 8.0 | 0.00 | 0.36 | 0.36 | 58 | 1011.8 |
| 20260905201503 | 88 | 171 | 3.0 | 11.0 | 0.00 | 0.36 | 0.36 | 59 | 1011.8 |
| 20260905201003 | 88 | 96 | 5.0 | 11.0 | 0.00 | 0.36 | 0.36 | 59 | 1011.8 |
| 20260905200502 | 87 | 111 | 3.0 | 10.0 | 0.00 | 0.36 | 0.36 | 60 | 1011.8 |
| 20260905200003 | 87 | 101 | 4.0 | 10.0 | 0.00 | 0.36 | 0.36 | 60 | 1011.6 |
| 20260905195502 | 87 | 98 | 5.0 | 9.0 | 0.00 | 0.36 | 0.36 | 59 | 1011.7 |
| 20260905195004 | 87 | 132 | 2.0 | 8.0 | 0.00 | 0.36 | 0.36 | 61 | 1011.8 |
| 20260905194503 | 87 | 134 | 3.0 | 12.0 | 0.00 | 0.36 | 0.36 | 63 | 1011.9 |
| 20260905194003 | 86 | 98 | 2.0 | 12.0 | 0.00 | 0.36 | 0.36 | 63 | 1011.9 |
| 20260905193503 | 86 | 85 | 7.0 | 10.0 | 0.00 | 0.36 | 0.36 | 62 | 1012.0 |
| 20260905193003 | 85 | 96 | 5.0 | 9.0 | 0.00 | 0.36 | 0.36 | 64 | 1012.0 |
| 20260905192503 | 85 | 93 | 7.0 | 9.0 | 0.00 | 0.36 | 0.36 | 64 | 1012.0 |